Tracking 30995 objects as of 5-Jul-2025
HD Live streaming from Space Station
objects crossing your sky now

DELTA 1 DEB

Track DELTA 1 DEB now!
10-day predictions


NORAD ID: 7036
Int'l Code: 1973-086AC
Perigee: 1,416.0 km
Apogee: 1,485.2 km
Inclination: 101.6 °
Period: 114.7 minutes
Semi major axis: 7821 km
RCS: 0.0934 m2 (small)
Launch date: November 6, 1973
Source: United States (US)
Launch site: AIR FORCE WESTERN TEST RANGE (AFWTR)

Note: This is SATELLITE DEBRIS
Your satellite tracking list
Your tracking list is empty




NASA's NSSDC Master Catalog

Two Line Element Set (TLE):
1 07036U 73086AC  25186.48487465  .00001714  00000-0  10776-1 0  9993
2 07036 101.5603 162.9257 0044207 154.1641 320.4703 12.55044730353635
Source of the keplerian elements: AFSPC